﻿測定場所 (Monitoring sites),日付 (Measurement date),時間 (Measurement time),線量率 最大値 (max) μGy/h,線量率 最小値 (min) μGy/h,線量率 平均値 (average) μGy/h,
江戸川 (Edogawa),2016-09-04,23:01～24:00,0.0577,0.0505,0.0549,
江戸川 (Edogawa),2016-09-04,22:01～23:00,0.0574,0.0511,0.0543,
江戸川 (Edogawa),2016-09-04,21:01～22:00,0.0574,0.0516,0.0546,
江戸川 (Edogawa),2016-09-04,20:01～21:00,0.0577,0.0521,0.0550,
江戸川 (Edogawa),2016-09-04,19:01～20:00,0.0586,0.0505,0.0545,
江戸川 (Edogawa),2016-09-04,18:01～19:00,0.0571,0.0514,0.0546,
江戸川 (Edogawa),2016-09-04,17:01～18:00,0.0576,0.0511,0.0544,
江戸川 (Edogawa),2016-09-04,16:01～17:00,0.0582,0.0508,0.0548,
江戸川 (Edogawa),2016-09-04,15:01～16:00,0.0589,0.0502,0.0545,
江戸川 (Edogawa),2016-09-04,14:01～15:00,0.0572,0.0514,0.0545,
江戸川 (Edogawa),2016-09-04,13:01～14:00,0.0570,0.0515,0.0544,
江戸川 (Edogawa),2016-09-04,12:01～13:00,0.0569,0.0519,0.0544,
江戸川 (Edogawa),2016-09-04,11:01～12:00,0.0584,0.0517,0.0546,
江戸川 (Edogawa),2016-09-04,10:01～11:00,0.0584,0.0525,0.0551,
江戸川 (Edogawa),2016-09-04,09:01～10:00,0.0575,0.0517,0.0546,
江戸川 (Edogawa),2016-09-04,08:01～09:00,0.0575,0.0520,0.0549,
江戸川 (Edogawa),2016-09-04,07:01～08:00,0.0587,0.0511,0.0549,
江戸川 (Edogawa),2016-09-04,06:01～07:00,0.0575,0.0508,0.0549,
江戸川 (Edogawa),2016-09-04,05:01～06:00,0.0587,0.0517,0.0550,
江戸川 (Edogawa),2016-09-04,04:01～05:00,0.0587,0.0520,0.0549,
江戸川 (Edogawa),2016-09-04,03:01～04:00,0.0594,0.0515,0.0549,
江戸川 (Edogawa),2016-09-04,02:01～03:00,0.0572,0.0514,0.0544,
江戸川 (Edogawa),2016-09-04,01:01～02:00,0.0573,0.0515,0.0546,
江戸川 (Edogawa),2016-09-04,00:01～01:00,0.0574,0.0520,0.0544,
江戸川 (Edogawa),2016-09-03,23:01～24:00,0.0580,0.0504,0.0543,
江戸川 (Edogawa),2016-09-03,22:01～23:00,0.0574,0.0517,0.0546,
江戸川 (Edogawa),2016-09-03,21:01～22:00,0.0593,0.0505,0.0549,
江戸川 (Edogawa),2016-09-03,20:01～21:00,0.0585,0.0521,0.0551,
江戸川 (Edogawa),2016-09-03,19:01～20:00,0.0584,0.0507,0.0553,
江戸川 (Edogawa),2016-09-03,18:01～19:00,0.0574,0.0516,0.0546,
江戸川 (Edogawa),2016-09-03,17:01～18:00,0.0575,0.0514,0.0550,
江戸川 (Edogawa),2016-09-03,16:01～17:00,0.0602,0.0519,0.0553,
江戸川 (Edogawa),2016-09-03,15:01～16:00,0.0574,0.0516,0.0550,
江戸川 (Edogawa),2016-09-03,14:01～15:00,0.0581,0.0516,0.0548,
江戸川 (Edogawa),2016-09-03,13:01～14:00,0.0590,0.0522,0.0551,
江戸川 (Edogawa),2016-09-03,12:01～13:00,0.0577,0.0520,0.0548,
江戸川 (Edogawa),2016-09-03,11:01～12:00,0.0589,0.0518,0.0546,
江戸川 (Edogawa),2016-09-03,10:01～11:00,0.0573,0.0517,0.0547,
江戸川 (Edogawa),2016-09-03,09:01～10:00,0.0576,0.0521,0.0548,
江戸川 (Edogawa),2016-09-03,08:01～09:00,0.0591,0.0513,0.0550,
江戸川 (Edogawa),2016-09-03,07:01～08:00,0.0586,0.0520,0.0549,
江戸川 (Edogawa),2016-09-03,06:01～07:00,0.0591,0.0523,0.0551,
江戸川 (Edogawa),2016-09-03,05:01～06:00,0.0585,0.0512,0.0550,
江戸川 (Edogawa),2016-09-03,04:01～05:00,0.0582,0.0525,0.0549,
江戸川 (Edogawa),2016-09-03,03:01～04:00,0.0573,0.0513,0.0546,
江戸川 (Edogawa),2016-09-03,02:01～03:00,0.0578,0.0511,0.0545,
江戸川 (Edogawa),2016-09-03,01:01～02:00,0.0587,0.0518,0.0548,
江戸川 (Edogawa),2016-09-03,00:01～01:00,0.0577,0.0515,0.0546,
江戸川 (Edogawa),2016-09-02,23:01～24:00,0.0578,0.0510,0.0551,
江戸川 (Edogawa),2016-09-02,22:01～23:00,0.0593,0.0522,0.0550,
江戸川 (Edogawa),2016-09-02,21:01～22:00,0.0586,0.0510,0.0546,
江戸川 (Edogawa),2016-09-02,20:01～21:00,0.0581,0.0510,0.0545,
江戸川 (Edogawa),2016-09-02,19:01～20:00,0.0577,0.0518,0.0551,
江戸川 (Edogawa),2016-09-02,18:01～19:00,0.0594,0.0515,0.0549,
江戸川 (Edogawa),2016-09-02,17:01～18:00,0.0575,0.0523,0.0551,
江戸川 (Edogawa),2016-09-02,16:01～17:00,0.0587,0.0522,0.0552,
江戸川 (Edogawa),2016-09-02,15:01～16:00,0.0582,0.0525,0.0546,
江戸川 (Edogawa),2016-09-02,14:01～15:00,0.0586,0.0521,0.0549,
江戸川 (Edogawa),2016-09-02,13:01～14:00,0.0578,0.0514,0.0550,
江戸川 (Edogawa),2016-09-02,12:01～13:00,0.0586,0.0523,0.0553,
江戸川 (Edogawa),2016-09-02,11:01～12:00,0.0594,0.0515,0.0553,
江戸川 (Edogawa),2016-09-02,10:01～11:00,0.0584,0.0527,0.0553,
江戸川 (Edogawa),2016-09-02,09:01～10:00,0.0595,0.0515,0.0549,
江戸川 (Edogawa),2016-09-02,08:01～09:00,0.0588,0.0522,0.0551,
江戸川 (Edogawa),2016-09-02,07:01～08:00,0.0583,0.0521,0.0552,
江戸川 (Edogawa),2016-09-02,06:01～07:00,0.0590,0.0519,0.0552,
江戸川 (Edogawa),2016-09-02,05:01～06:00,0.0585,0.0521,0.0554,
江戸川 (Edogawa),2016-09-02,04:01～05:00,0.0585,0.0519,0.0550,
江戸川 (Edogawa),2016-09-02,03:01～04:00,0.0587,0.0509,0.0551,
江戸川 (Edogawa),2016-09-02,02:01～03:00,0.0588,0.0512,0.0552,
江戸川 (Edogawa),2016-09-02,01:01～02:00,0.0585,0.0523,0.0552,
江戸川 (Edogawa),2016-09-02,00:01～01:00,0.0586,0.0511,0.0547,
江戸川 (Edogawa),2016-09-01,23:01～24:00,0.0584,0.0513,0.0549,
江戸川 (Edogawa),2016-09-01,22:01～23:00,0.0581,0.0500,0.0545,
江戸川 (Edogawa),2016-09-01,21:01～22:00,0.0576,0.0514,0.0546,
江戸川 (Edogawa),2016-09-01,20:01～21:00,0.0581,0.0521,0.0548,
江戸川 (Edogawa),2016-09-01,19:01～20:00,0.0581,0.0509,0.0546,
江戸川 (Edogawa),2016-09-01,18:01～19:00,0.0593,0.0513,0.0548,
江戸川 (Edogawa),2016-09-01,17:01～18:00,0.0581,0.0511,0.0548,
江戸川 (Edogawa),2016-09-01,16:01～17:00,0.0583,0.0519,0.0544,
江戸川 (Edogawa),2016-09-01,15:01～16:00,0.0574,0.0501,0.0543,
江戸川 (Edogawa),2016-09-01,14:01～15:00,0.0578,0.0506,0.0546,
江戸川 (Edogawa),2016-09-01,13:01～14:00,0.0576,0.0520,0.0546,
江戸川 (Edogawa),2016-09-01,12:01～13:00,0.0577,0.0516,0.0546,
江戸川 (Edogawa),2016-09-01,11:01～12:00,0.0579,0.0514,0.0544,
江戸川 (Edogawa),2016-09-01,10:01～11:00,0.0602,0.0523,0.0553,
江戸川 (Edogawa),2016-09-01,09:01～10:00,0.0578,0.0519,0.0547,
江戸川 (Edogawa),2016-09-01,08:01～09:00,0.0588,0.0520,0.0545,
江戸川 (Edogawa),2016-09-01,07:01～08:00,0.0572,0.0516,0.0542,
江戸川 (Edogawa),2016-09-01,06:01～07:00,0.0579,0.0504,0.0544,
江戸川 (Edogawa),2016-09-01,05:01～06:00,0.0578,0.0508,0.0539,
江戸川 (Edogawa),2016-09-01,04:01～05:00,0.0567,0.0500,0.0539,
江戸川 (Edogawa),2016-09-01,03:01～04:00,0.0578,0.0514,0.0545,
江戸川 (Edogawa),2016-09-01,02:01～03:00,0.0569,0.0513,0.0544,
江戸川 (Edogawa),2016-09-01,01:01～02:00,0.0582,0.0502,0.0541,
江戸川 (Edogawa),2016-09-01,00:01～01:00,0.0571,0.0500,0.0542,
江戸川 (Edogawa),2016-08-31,23:01～24:00,0.0578,0.0506,0.0542,
江戸川 (Edogawa),2016-08-31,22:01～23:00,0.0577,0.0507,0.0539,
江戸川 (Edogawa),2016-08-31,21:01～22:00,0.0574,0.0504,0.0542,
江戸川 (Edogawa),2016-08-31,20:01～21:00,0.0573,0.0518,0.0543,
江戸川 (Edogawa),2016-08-31,19:01～20:00,0.0580,0.0513,0.0543,
江戸川 (Edogawa),2016-08-31,18:01～19:00,0.0575,0.0512,0.0544,
江戸川 (Edogawa),2016-08-31,17:01～18:00,0.0583,0.0498,0.0545,
江戸川 (Edogawa),2016-08-31,16:01～17:00,0.0582,0.0512,0.0547,
江戸川 (Edogawa),2016-08-31,15:01～16:00,0.0584,0.0509,0.0544,
江戸川 (Edogawa),2016-08-31,14:01～15:00,0.0570,0.0514,0.0541,
江戸川 (Edogawa),2016-08-31,13:01～14:00,0.0572,0.0516,0.0547,
江戸川 (Edogawa),2016-08-31,12:01～13:00,0.0586,0.0515,0.0544,
江戸川 (Edogawa),2016-08-31,11:01～12:00,0.0577,0.0515,0.0543,
江戸川 (Edogawa),2016-08-31,10:01～11:00,0.0584,0.0513,0.0542,
江戸川 (Edogawa),2016-08-31,09:01～10:00,0.0566,0.0508,0.0539,
江戸川 (Edogawa),2016-08-31,08:01～09:00,0.0580,0.0510,0.0541,
江戸川 (Edogawa),2016-08-31,07:01～08:00,0.0578,0.0506,0.0542,
江戸川 (Edogawa),2016-08-31,06:01～07:00,0.0586,0.0497,0.0541,
江戸川 (Edogawa),2016-08-31,05:01～06:00,0.0573,0.0511,0.0537,
江戸川 (Edogawa),2016-08-31,04:01～05:00,0.0576,0.0507,0.0544,
江戸川 (Edogawa),2016-08-31,03:01～04:00,0.0571,0.0512,0.0542,
江戸川 (Edogawa),2016-08-31,02:01～03:00,0.0566,0.0500,0.0541,
江戸川 (Edogawa),2016-08-31,01:01～02:00,0.0579,0.0509,0.0541,
江戸川 (Edogawa),2016-08-31,00:01～01:00,0.0567,0.0501,0.0536,
江戸川 (Edogawa),2016-08-30,23:01～24:00,0.0584,0.0501,0.0536,
江戸川 (Edogawa),2016-08-30,22:01～23:00,0.0572,0.0499,0.0535,
江戸川 (Edogawa),2016-08-30,21:01～22:00,0.0572,0.0513,0.0539,
江戸川 (Edogawa),2016-08-30,20:01～21:00,0.0572,0.0508,0.0537,
江戸川 (Edogawa),2016-08-30,19:01～20:00,0.0576,0.0513,0.0543,
江戸川 (Edogawa),2016-08-30,18:01～19:00,0.0598,0.0523,0.0557,
江戸川 (Edogawa),2016-08-30,17:01～18:00,0.0621,0.0534,0.0576,
江戸川 (Edogawa),2016-08-30,16:01～17:00,0.0635,0.0556,0.0597,
江戸川 (Edogawa),2016-08-30,15:01～16:00,0.0581,0.0511,0.0540,
江戸川 (Edogawa),2016-08-30,14:01～15:00,0.0575,0.0500,0.0536,
江戸川 (Edogawa),2016-08-30,13:01～14:00,0.0566,0.0502,0.0535,
江戸川 (Edogawa),2016-08-30,12:01～13:00,0.0566,0.0503,0.0534,
江戸川 (Edogawa),2016-08-30,11:01～12:00,0.0568,0.0500,0.0534,
江戸川 (Edogawa),2016-08-30,10:01～11:00,0.0583,0.0502,0.0538,
江戸川 (Edogawa),2016-08-30,09:01～10:00,0.0579,0.0518,0.0550,
江戸川 (Edogawa),2016-08-30,08:01～09:00,0.0587,0.0524,0.0561,
江戸川 (Edogawa),2016-08-30,07:01～08:00,0.0607,0.0547,0.0576,
江戸川 (Edogawa),2016-08-30,06:01～07:00,0.0598,0.0541,0.0571,
江戸川 (Edogawa),2016-08-30,05:01～06:00,0.0605,0.0540,0.0571,
江戸川 (Edogawa),2016-08-30,04:01～05:00,0.0581,0.0521,0.0545,
江戸川 (Edogawa),2016-08-30,03:01～04:00,0.0574,0.0505,0.0540,
江戸川 (Edogawa),2016-08-30,02:01～03:00,0.0595,0.0511,0.0551,
江戸川 (Edogawa),2016-08-30,01:01～02:00,0.0593,0.0498,0.0542,
江戸川 (Edogawa),2016-08-30,00:01～01:00,0.0568,0.0488,0.0526,
江戸川 (Edogawa),2016-08-29,23:01～24:00,0.0562,0.0488,0.0531,
江戸川 (Edogawa),2016-08-29,22:01～23:00,0.0570,0.0506,0.0536,
江戸川 (Edogawa),2016-08-29,21:01～22:00,0.0559,0.0500,0.0534,
江戸川 (Edogawa),2016-08-29,20:01～21:00,0.0565,0.0510,0.0538,
江戸川 (Edogawa),2016-08-29,19:01～20:00,0.0568,0.0508,0.0536,
江戸川 (Edogawa),2016-08-29,18:01～19:00,0.0563,0.0488,0.0533,
江戸川 (Edogawa),2016-08-29,17:01～18:00,0.0566,0.0502,0.0534,
江戸川 (Edogawa),2016-08-29,16:01～17:00,0.0566,0.0497,0.0536,
江戸川 (Edogawa),2016-08-29,15:01～16:00,0.0562,0.0499,0.0532,
江戸川 (Edogawa),2016-08-29,14:01～15:00,0.0574,0.0503,0.0533,
江戸川 (Edogawa),2016-08-29,13:01～14:00,0.0560,0.0495,0.0527,
江戸川 (Edogawa),2016-08-29,12:01～13:00,0.0588,0.0506,0.0534,
江戸川 (Edogawa),2016-08-29,11:01～12:00,0.0558,0.0493,0.0528,
江戸川 (Edogawa),2016-08-29,10:01～11:00,0.0562,0.0507,0.0528,
江戸川 (Edogawa),2016-08-29,09:01～10:00,0.0557,0.0486,0.0532,
江戸川 (Edogawa),2016-08-29,08:01～09:00,0.0560,0.0504,0.0532,
江戸川 (Edogawa),2016-08-29,07:01～08:00,0.0565,0.0504,0.0531,
江戸川 (Edogawa),2016-08-29,06:01～07:00,0.0570,0.0504,0.0536,
江戸川 (Edogawa),2016-08-29,05:01～06:00,0.0585,0.0513,0.0539,
江戸川 (Edogawa),2016-08-29,04:01～05:00,0.0584,0.0513,0.0540,
江戸川 (Edogawa),2016-08-29,03:01～04:00,0.0566,0.0510,0.0541,
江戸川 (Edogawa),2016-08-29,02:01～03:00,0.0590,0.0507,0.0543,
江戸川 (Edogawa),2016-08-29,01:01～02:00,0.0581,0.0498,0.0540,
江戸川 (Edogawa),2016-08-29,00:01～01:00,0.0569,0.0506,0.0541,
